Oregon State Current Weather Observations

 
 ASUS46 KPQR 150810
 RWROR 
 
 OREGON REGIONAL WEATHER ROUNDUP
 NATIONAL WEATHER SERVICE PORTLAND OR
 100 AM PDT WED AUG 15 2018
 
 NOTE: "FAIR" INDICATES FEW OR NO CLOUDS BELOW 12,000 FEET WITH
 NO SIGNIFICANT WEATHER AND/OR OBSTRUCTIONS TO VISIBILITY.
 
 ORZ001>013-150900-
 NORTHWEST OREGON
 
   
 CITY           SKY/WX    TMP DP  RH WIND       PRES   REMARKS
 ASTORIA        CLOUDY    56  56 100 SW9       29.90S FOG              
 TILLAMOOK      CLOUDY    59  57  94 CALM      29.93S FOG              
 NEWPORT        CLOUDY    59  59 100 S6        29.95F FOG              
 PORTLAND       MOCLDY    72  59  63 CALM      29.84R                  
 VANCOUVER WA   CLEAR     68  61  78 CALM      29.83R                  
 SCAPPOOSE      CLEAR     68  57  68 CALM      29.83R HAZE             
 HILLSBORO      CLEAR     66  56  70 CALM      29.83S HAZE             
 AURORA         CLEAR     68  58  70 CALM      29.86R                  
 MCMINNVILLE    CLEAR     64  57  78 SW6       29.85R                  
 SALEM          CLEAR     68  57  68 S3        29.85R                  
 CORVALLIS      PTCLDY    61  56  83 NW18      29.88R                  
 EUGENE         CLEAR     62  56  80 SW10      29.90R                  
 
ORZ021-028-150900- SOUTHWEST OREGON CITY SKY/WX TMP DP RH WIND PRES REMARKS NORTH BEND CLOUDY 59 58 96 W3 29.95S FOG BROOKINGS CLOUDY 55 54 96 CALM 29.96R ROSEBURG CLEAR 70 59 68 N6 29.89R SEXTON SUMMIT CLOUDY 68 54 60 N7 30.02S GRANTS PASS NOT AVBL MEDFORD CLOUDY 75 52 44 CALM 29.87R HAZE
ORZ014>016-041-150900- COLUMBIA GORGE CITY SKY/WX TMP DP RH WIND PRES REMARKS TROUTDALE CLEAR 67 56 67 E5 29.84R SMOKE HOOD RIVER CLEAR 63 50 63 S5 29.87R HAZE THE DALLES CLEAR 65 43 44 CALM 29.83R
ORZ029>031-041-044-049-050-061>064-502-503-505>511-150900- EASTERN OREGON CITY SKY/WX TMP DP RH WIND PRES REMARKS MADRAS CLEAR 61 37 41 SE7 29.96R REDMOND CLEAR 61 36 39 S3 29.97R HAZE BEND CLEAR 70 34 26 W6 29.99S PRINEVILLE CLEAR 61 32 33 CALM 29.98S KLAMATH FALLS CLOUDY 58 49 72 CALM 30.03R HAZE LAKEVIEW PTCLDY 58 38 47 CALM 30.07R HERMISTON CLEAR 59 47 64 SE3 29.83R PENDLETON CLEAR 60 38 43 SE8 29.87R HAZE JOHN DAY CLEAR 69 34 27 CALM 29.99S MEACHAM CLEAR 47 37 68 CALM 30.01R HAZE LA GRANDE CLEAR 58 38 47 CALM 29.96R BAKER CITY CLEAR 53 46 77 CALM 29.99R BURNS CLEAR 54 27 35 W5 30.01R ROME N/A 68 28 22 NE12 29.98R ONTARIO CLEAR 66 43 43 W6 29.89R

Data from: http://www.wrh.noaa.gov/sew/get.php?pil=RWR&sid=OR&version=0&format=printer

Current Observations

Current Weather Conditions by Major Highway
Washington State Current Weather Observations   …  Oregon State Current Weather Observation



48 Hour Forecast


Seattle  …  Vancouver  …  Portland
————————————————————————————————————————
Bend  …  Spokane  …  Richland  …  Pendleton  …  Blue Mountains I-84  …  Yakima
————————————————————————————————————————
Goldendale, Washington Higher Elevations  …  Dallesport Airport - Goldendale  …  Bingen - White Salmon - Hood River  …  Index





Top of Page